Weather History for Bullhead City, AZ

Change the Weather History Date:

Monday, March 4, 2013

  Actual Average Record
Temperature  
Mean Temperature 64 °F -  
Max Temperature 75 °F 70 °F 80 °F (1988)
Min Temperature 53 °F 49 °F 41 °F (2002)
Degree Days  
Heating Degree Days 1    
Growing Degree Days 14 (Base 50)    
Moisture  
Dew Point 33 °F    
Average Humidity 32    
Maximum Humidity 51    
Minimum Humidity 17    
Precipitation  
Precipitation 0.00 in - - ()
Sea Level Pressure  
Sea Level Pressure 29.94 in    
Wind  
Wind Speed 9 mph (North)    
Max Wind Speed 20 mph    
Max Gust Speed 24 mph    
Visibility 10 miles    
Events      
Averages and records for this station are not official NWS values.
T = Trace of Precipitation, MM = Missing Value Source: NWS Daily Summary

Daily Weather History Graph

Daily Weather History Graph

Search for Another Location

Airport:

Trip Planner

Search our weather history database for the weather conditions in past years. The results will help you decide how hot, cold, wet, or windy it might be!

Date:

Astronomy

Mar. 04, 2013 Rise Set
Actual Time 7:03 AM MST 6:36 PM MST
Civil Twilight 6:38 AM MST 7:02 PM MST
Nautical Twilight 6:08 AM MST 7:31 PM MST
Astronomical Twilight 5:39 AM MST 8:00 PM MST
Moon 1:08 AM MST (3/4) 11:31 AM MST (3/4)
Length of Visible Light 12h 24m
Length of Day
11h 33m
Waning Gibbous, 51% of the Moon is Illuminated
Mar 4
Waning Gibbous
Mar 4
Last Quarter
Mar 11
New
Mar 19
First Quarter
Mar 27
Full

Hourly Weather History & Observations

Time (MST) Temp. Dew Point Humidity Pressure Visibility Wind Dir Wind Speed Gust Speed Precip Events Conditions
12:15 AM 68.0 °F 35.6 °F 30% 29.84 in 10.0 mi South 5.8 mph - N/A   Mostly Cloudy
12:35 AM 66.2 °F 35.6 °F 32% 29.84 in 10.0 mi South 11.5 mph - N/A   Mostly Cloudy
12:55 AM 66.2 °F 35.6 °F 32% 29.85 in 10.0 mi SSW 11.5 mph - N/A   Clear
1:15 AM 66.2 °F 35.6 °F 32% 29.85 in 10.0 mi South 10.4 mph - N/A   Partly Cloudy
1:35 AM 66.2 °F 35.6 °F 32% 29.86 in 10.0 mi South 10.4 mph - N/A   Scattered Clouds
1:55 AM 64.4 °F 35.6 °F 34% 29.85 in 10.0 mi South 13.8 mph - N/A   Mostly Cloudy
2:15 AM 64.4 °F 35.6 °F 34% 29.85 in 10.0 mi SSW 11.5 mph - N/A   Clear
2:35 AM 64.4 °F 35.6 °F 34% 29.84 in 10.0 mi SW 13.8 mph 23.0 mph N/A   Clear
2:55 AM 64.4 °F 35.6 °F 34% 29.84 in 10.0 mi SSW 12.7 mph - N/A   Clear
3:15 AM 62.6 °F 35.6 °F 37% 29.84 in 10.0 mi SSW 13.8 mph - N/A   Clear
3:35 AM 62.6 °F 35.6 °F 37% 29.85 in 10.0 mi SSW 9.2 mph 19.6 mph N/A   Clear
3:55 AM 60.8 °F 35.6 °F 39% 29.86 in 10.0 mi Calm Calm - N/A   Clear
4:15 AM 59.0 °F 35.6 °F 42% 29.86 in 10.0 mi SE 5.8 mph - N/A   Clear
4:35 AM 59.0 °F 35.6 °F 42% 29.87 in 10.0 mi Calm Calm - N/A   Clear
5:15 AM 57.2 °F 35.6 °F 44% 29.87 in 10.0 mi NE 4.6 mph - N/A   Clear
5:35 AM 55.4 °F 35.6 °F 47% 29.88 in 10.0 mi Calm Calm - N/A   Clear
5:55 AM 55.4 °F 35.6 °F 47% 29.89 in 10.0 mi East 4.6 mph - N/A   Clear
6:15 AM 53.6 °F 35.6 °F 51% 29.90 in 10.0 mi ENE 5.8 mph - N/A   Partly Cloudy
6:35 AM 53.6 °F 35.6 °F 51% 29.90 in 10.0 mi ENE 8.1 mph - N/A   Clear
6:55 AM 53.6 °F 35.6 °F 51% 29.91 in 10.0 mi East 8.1 mph - N/A   Partly Cloudy
7:15 AM 53.6 °F 35.6 °F 51% 29.91 in 10.0 mi North 4.6 mph - N/A   Clear
7:35 AM 53.6 °F 35.6 °F 51% 29.93 in 10.0 mi Calm Calm - N/A   Partly Cloudy
7:55 AM 55.4 °F 37.4 °F 51% 29.93 in 10.0 mi Calm Calm - N/A   Mostly Cloudy
8:15 AM 55.4 °F 37.4 °F 51% 29.94 in 10.0 mi Calm Calm - N/A   Partly Cloudy
8:35 AM 57.2 °F 37.4 °F 48% 29.95 in 10.0 mi Calm Calm - N/A   Clear
8:55 AM 57.2 °F 37.4 °F 48% 29.95 in 10.0 mi NNW 3.5 mph - N/A   Clear
9:15 AM 59.0 °F 37.4 °F 45% 29.97 in 10.0 mi NW 3.5 mph - N/A   Clear
9:55 AM 62.6 °F 37.4 °F 39% 29.98 in 10.0 mi Calm Calm - N/A   Clear
10:15 AM 64.4 °F 37.4 °F 37% 29.98 in 10.0 mi North 3.5 mph - N/A   Clear
10:35 AM 66.2 °F 37.4 °F 35% 29.98 in 10.0 mi North 9.2 mph - N/A   Clear
10:55 AM 68.0 °F 37.4 °F 33% 29.98 in 10.0 mi NNW 12.7 mph - N/A   Clear
11:15 AM 68.0 °F 37.4 °F 33% 29.98 in 10.0 mi NNW 13.8 mph 19.6 mph N/A   Clear
11:55 AM 71.6 °F 37.4 °F 29% 29.98 in 10.0 mi NNW 15.0 mph - N/A   Clear
12:15 PM 71.6 °F 35.6 °F 27% 29.97 in 10.0 mi NNW 15.0 mph 20.7 mph N/A   Clear
12:35 PM 71.6 °F 35.6 °F 27% 29.96 in 10.0 mi NNW 15.0 mph 20.7 mph N/A   Clear
12:55 PM 73.4 °F 35.6 °F 25% 29.96 in 10.0 mi NNW 16.1 mph 21.9 mph N/A   Clear
1:15 PM 73.4 °F 33.8 °F 23% 29.95 in 10.0 mi NNW 17.3 mph 24.2 mph N/A   Clear
1:35 PM 73.4 °F 33.8 °F 23% 29.94 in 10.0 mi NNW 18.4 mph 23.0 mph N/A   Clear
1:55 PM 73.4 °F 33.8 °F 23% 29.93 in 10.0 mi NNW 19.6 mph 23.0 mph N/A   Clear
2:15 PM 75.2 °F 32.0 °F 21% 29.93 in 10.0 mi NNW 12.7 mph 19.6 mph N/A   Clear
2:35 PM 75.2 °F 35.6 °F 24% 29.93 in 10.0 mi NNW 16.1 mph - N/A   Clear
2:55 PM 75.2 °F 35.6 °F 24% 29.93 in 10.0 mi NNW 18.4 mph - N/A   Clear
3:15 PM 75.2 °F 35.6 °F 24% 29.93 in 10.0 mi NNW 19.6 mph - N/A   Clear
3:35 PM 75.2 °F 32.0 °F 21% 29.94 in 10.0 mi NNW 17.3 mph - N/A   Clear
3:55 PM 75.2 °F 33.8 °F 22% 29.94 in 10.0 mi NNW 17.3 mph 21.9 mph N/A   Clear
4:15 PM 75.2 °F 32.0 °F 21% 29.94 in 10.0 mi NNW 15.0 mph - N/A   Clear
4:35 PM 75.2 °F 32.0 °F 21% 29.94 in 10.0 mi North 17.3 mph - N/A   Clear
4:55 PM 75.2 °F 28.4 °F 18% 29.94 in 10.0 mi North 13.8 mph - N/A   Clear
5:15 PM 75.2 °F 28.4 °F 18% 29.94 in 10.0 mi North 15.0 mph 19.6 mph N/A   Clear
5:35 PM 75.2 °F 28.4 °F 18% 29.94 in 10.0 mi North 13.8 mph - N/A   Clear
5:55 PM 75.2 °F 26.6 °F 17% 29.95 in 10.0 mi NNW 11.5 mph - N/A   Clear
6:15 PM 73.4 °F 26.6 °F 18% 29.95 in 10.0 mi North 8.1 mph - N/A   Clear
6:35 PM 73.4 °F 26.6 °F 18% 29.96 in 10.0 mi North 9.2 mph - N/A   Clear
6:55 PM 71.6 °F 28.4 °F 20% 29.98 in 10.0 mi NNE 3.5 mph - N/A   Clear
7:35 PM 69.8 °F 28.4 °F 21% 29.99 in 10.0 mi North 6.9 mph - N/A   Clear
7:55 PM 68.0 °F 28.4 °F 23% 30.00 in 10.0 mi North 3.5 mph - N/A   Clear
8:15 PM 68.0 °F 28.4 °F 23% 30.01 in 10.0 mi NNE 6.9 mph - N/A   Clear
8:35 PM 68.0 °F 28.4 °F 23% 30.01 in 10.0 mi NNE 6.9 mph - N/A   Clear
8:55 PM 66.2 °F 28.4 °F 24% 30.02 in 10.0 mi Calm Calm - N/A   Clear
9:15 PM 64.4 °F 28.4 °F 26% 30.03 in 10.0 mi NE 4.6 mph - N/A   Clear
9:35 PM 64.4 °F 28.4 °F 26% 30.04 in 10.0 mi ENE 6.9 mph - N/A   Clear
9:55 PM 64.4 °F 28.4 °F 26% 30.04 in 10.0 mi NE 6.9 mph - N/A   Clear
10:15 PM 64.4 °F 28.4 °F 26% 30.04 in 10.0 mi North 4.6 mph - N/A   Clear
10:35 PM 62.6 °F 32.0 °F 32% 30.04 in 10.0 mi North 8.1 mph - N/A   Clear
10:55 PM 62.6 °F 28.4 °F 27% 30.04 in 10.0 mi NNE 4.6 mph - N/A   Clear
11:35 PM 62.6 °F 30.2 °F 30% 30.05 in 10.0 mi Calm Calm - N/A   Clear
11:55 PM 62.6 °F 30.2 °F 30% 30.04 in 10.0 mi Calm Calm - N/A   Clear